Date String (YYYY-MM-DD hh:mm:ss) UTC,Instrument flags,absolute air pressure of the measurement (hPa),sample flow rate (lpm),inlet stack bypass flow (lpm),air temperature of the measurement (°C),ambient temperature measured by the external sensor (°C),aerosol sample conditioner tube jacket temperature (°C),OPC LED temperature (°C),internal box temperature (°C),relative humidity of the measurement (%),span deviation,mass concentration of particles derived from Lorenz-Mie calculation of OPC scattering (μg/m³),mass concentration of particles derived from Lorenz-Mie calculation of OPC scattering (μg/m³),mass concentration of particles derived from Lorenz-Mie calculation of OPC scattering (μg/m³)
DateTimeUTC,F1_M11,P_M11,Q1_M11,Q2_M11,T1_M11,T2_M11,T3_M11,T4_M11,T5_M11,U1_M11,ZSPAN_M11,X0_M11,X2_M11,X1_M11
2024-01-21 23:00:00,SystemResetWarning,0820.8,4.99,000.00,022.7,022.1,000.0,031.0,024.1,18.0,0003.4,0037.17,0022.20,0020.41
2024-01-21 23:01:00,SystemResetWarning,0820.8,5.00,000.00,022.7,022.1,000.0,031.0,024.1,18.1,0003.2,0036.72,0022.31,0020.52
2024-01-21 23:02:00,SystemResetWarning,0820.8,5.00,000.00,022.7,022.1,000.0,031.0,024.1,18.0,0003.4,0036.98,0022.40,0020.63
2024-01-21 23:03:00,SystemResetWarning,0820.7,5.00,000.00,022.7,022.1,000.0,031.0,024.1,17.8,0003.5,0037.43,0022.51,0020.71
2024-01-21 23:04:00,SystemResetWarning,0820.8,5.01,000.00,022.7,022.1,000.0,031.0,024.1,17.6,0003.3,0037.96,0022.67,0020.79
2024-01-21 23:05:00,SystemResetWarning,0820.8,5.01,000.00,022.7,022.1,000.0,031.0,024.1,17.4,0003.2,0037.31,0022.71,0020.84
2024-01-21 23:06:00,SystemResetWarning,0820.9,5.01,000.00,022.8,022.1,000.0,031.0,024.1,17.2,0003.2,0036.56,0022.68,0020.87
2024-01-21 23:07:00,SystemResetWarning,0820.8,5.01,000.00,022.8,022.1,000.0,031.0,024.2,17.1,0003.0,0035.90,0022.68,0020.90
2024-01-21 23:08:00,SystemResetWarning,0820.8,4.99,000.00,022.8,022.1,000.0,031.0,024.2,17.6,0002.8,0034.28,0022.65,0020.91
2024-01-21 23:09:00,SystemResetWarning,0820.9,5.00,000.00,022.8,022.1,000.0,031.1,024.2,17.7,0002.5,0033.73,0022.65,0020.90
2024-01-21 23:10:00,SystemResetWarning,0820.8,4.99,000.00,022.8,022.1,000.0,031.1,024.2,17.6,0002.4,0033.97,0022.66,0020.88
2024-01-21 23:11:00,SystemResetWarning,0820.9,5.00,000.00,022.8,022.1,000.0,031.1,024.2,17.5,0002.5,0034.61,0022.60,0020.82
2024-01-21 23:12:00,SystemResetWarning,0820.9,4.99,000.00,022.8,022.1,000.0,031.1,024.2,17.4,0002.6,0034.70,0022.36,0020.64
2024-01-21 23:13:00,SystemResetWarning,0821.0,5.01,000.00,022.8,022.1,000.0,031.1,024.2,17.0,0002.4,0033.98,0022.23,0020.49
2024-01-21 23:14:00,SystemResetWarning,0820.9,5.01,000.00,022.8,022.1,000.0,031.1,024.2,16.7,0002.5,0033.51,0022.13,0020.39
2024-01-21 23:15:00,SystemResetWarning,0821.0,5.01,000.00,022.8,022.1,000.0,031.1,024.2,16.5,0002.6,0033.13,0021.82,0020.14
2024-01-21 23:16:00,SystemResetWarning,0821.1,5.00,000.00,022.8,022.1,000.0,031.1,024.2,16.4,0002.6,0032.55,0021.41,0019.77
2024-01-21 23:17:00,SystemResetWarning,0821.0,5.00,000.00,022.8,022.1,000.0,031.1,024.2,16.9,0002.4,0032.71,0021.06,0019.37
2024-01-21 23:18:00,SystemResetWarning,0820.8,4.99,000.00,022.8,022.1,000.0,031.1,024.2,16.9,0002.7,0032.84,0020.59,0018.97
2024-01-21 23:19:00,SystemResetWarning,0821.0,4.99,000.00,022.8,022.1,000.0,031.1,024.2,17.0,0002.9,0033.02,0020.23,0018.59
2024-01-21 23:20:00,SystemResetWarning,0821.0,5.00,000.00,022.8,022.1,000.0,031.1,024.2,16.9,0003.0,0032.74,0019.80,0018.18
2024-01-21 23:21:00,SystemResetWarning,0821.0,5.01,000.00,022.8,022.1,000.0,031.1,024.2,16.7,0003.2,0031.01,0019.22,0017.69
2024-01-21 23:22:00,SystemResetWarning,0821.1,5.00,000.00,022.8,022.1,000.0,031.1,024.2,16.6,0003.1,0029.87,0018.68,0017.21
2024-01-21 23:23:00,SystemResetWarning,0820.9,5.00,000.00,022.9,022.1,000.0,031.1,024.2,16.4,0003.3,0029.08,0018.20,0016.77
2024-01-21 23:24:00,SystemResetWarning,0821.0,5.00,000.00,022.9,022.1,000.0,031.1,024.2,16.4,0003.4,0028.78,0017.77,0016.33
2024-01-21 23:25:00,SystemResetWarning,0820.9,5.00,000.00,022.9,022.1,000.0,031.1,024.2,16.4,0003.5,0028.69,0017.36,0015.91
2024-01-21 23:26:00,SystemResetWarning,0821.2,4.99,000.00,022.9,022.1,000.0,031.2,024.2,16.5,0003.5,0027.94,0017.14,0015.70
2024-01-21 23:27:00,SystemResetWarning,0820.9,5.00,000.00,022.9,022.1,000.0,031.2,024.2,16.6,0003.5,0027.66,0017.03,0015.59
2024-01-21 23:28:00,SystemResetWarning,0821.0,5.00,000.00,022.9,022.1,000.0,031.2,024.3,16.3,0003.6,0027.85,0016.88,0015.46
2024-01-21 23:29:00,SystemResetWarning,0820.9,5.00,000.00,022.9,022.1,000.0,031.2,024.3,16.3,0003.7,0028.14,0016.66,0015.28
2024-01-21 23:30:00,SystemResetWarning,0820.9,5.01,000.00,022.9,022.1,000.0,031.2,024.2,16.3,0003.9,0027.92,0016.43,0015.12
2024-01-21 23:31:00,SystemResetWarning,0821.1,5.00,000.00,022.9,022.1,000.0,031.2,024.2,16.2,0003.8,0027.83,0016.43,0015.07
2024-01-21 23:32:00,SystemResetWarning,0821.2,5.01,000.00,022.9,022.1,000.0,031.2,024.2,16.3,0003.8,0028.00,0016.60,0015.22
2024-01-21 23:33:00,SystemResetWarning,0821.0,5.00,000.00,022.9,022.1,000.0,031.2,024.3,16.3,0004.0,0027.76,0016.82,0015.42
2024-01-21 23:34:00,SystemResetWarning,0821.2,4.99,000.00,022.9,022.1,000.0,031.2,024.2,16.2,0004.1,0027.63,0016.99,0015.61
2024-01-21 23:35:00,SystemResetWarning,0821.1,5.00,000.00,022.9,022.1,000.0,031.2,024.3,16.1,0004.1,0027.17,0017.02,0015.68
2024-01-21 23:36:00,SystemResetWarning,0821.1,4.99,000.00,022.9,022.1,000.0,031.2,024.3,16.1,0004.0,0026.08,0016.80,0015.52
2024-01-21 23:37:00,SystemResetWarning,0821.0,5.00,000.00,022.9,022.1,000.0,031.2,024.3,16.2,0004.1,0026.24,0016.39,0015.16
2024-01-21 23:38:00,SystemResetWarning,0820.9,5.00,000.00,022.9,022.1,000.0,031.2,024.2,16.1,0004.2,0026.08,0016.06,0014.83
2024-01-21 23:39:00,SystemResetWarning,0821.0,5.00,000.00,022.9,022.1,000.0,031.2,024.2,16.1,0004.2,0025.17,0015.89,0014.75
2024-01-21 23:40:00,SystemResetWarning,0821.0,5.00,000.00,022.9,022.1,000.0,031.2,024.2,16.2,0004.1,0024.36,0015.89,0014.73
2024-01-21 23:41:00,SystemResetWarning,0821.1,5.00,000.00,022.9,022.1,000.0,031.2,024.3,16.2,0004.1,0024.15,0015.92,0014.72
2024-01-21 23:42:00,SystemResetWarning,0821.1,5.00,000.00,022.9,022.1,000.0,031.2,024.3,16.2,0004.2,0024.52,0015.80,0014.64
2024-01-21 23:43:00,SystemResetWarning,0821.1,5.00,000.00,022.9,022.1,000.0,031.2,024.3,16.3,0004.3,0024.49,0015.52,0014.36
2024-01-21 23:44:00,SystemResetWarning,0821.2,5.00,000.00,022.9,022.1,000.0,031.2,024.3,16.4,0004.3,0023.93,0015.11,0013.99
2024-01-21 23:45:00,SystemResetWarning,0821.5,5.00,000.00,022.9,022.1,000.0,031.2,024.3,16.4,0004.0,0023.48,0014.73,0013.58
2024-01-21 23:46:00,SystemResetWarning,0821.3,4.99,000.00,022.9,022.1,000.0,031.2,024.3,16.3,0003.9,0023.73,0014.41,0013.29
2024-01-21 23:47:00,SystemResetWarning,0821.3,5.00,000.00,022.9,022.1,000.0,031.2,024.3,16.3,0004.0,0023.68,0014.23,0013.13
2024-01-21 23:48:00,SystemResetWarning,0821.1,5.01,000.00,022.9,022.1,000.0,031.2,024.3,16.4,0004.1,0023.08,0014.22,0013.12
2024-01-21 23:49:00,SystemResetWarning,0821.2,5.01,000.00,022.9,022.1,000.0,031.2,024.3,16.4,0004.0,0023.05,0014.19,0013.09
2024-01-21 23:50:00,SystemResetWarning,0821.1,4.99,000.00,022.9,022.1,000.0,031.2,024.3,16.3,0004.0,0022.79,0013.91,0012.83
2024-01-21 23:51:00,SystemResetWarning,0821.1,5.00,000.00,022.9,022.1,000.0,031.2,024.3,16.3,0004.2,0022.69,0013.59,0012.55
2024-01-21 23:52:00,SystemResetWarning,0821.1,5.00,000.00,022.9,022.1,000.0,031.2,024.3,16.3,0004.1,0022.37,0013.24,0012.24
2024-01-21 23:53:00,SystemResetWarning,0821.1,5.00,000.00,022.9,022.1,000.0,031.2,024.3,16.3,0004.1,0021.17,0012.90,0011.96
2024-01-21 23:54:00,SystemResetWarning,0821.2,4.99,000.00,022.9,022.1,000.0,031.2,024.3,16.3,0004.0,0020.58,0012.67,0011.76
2024-01-21 23:55:00,SystemResetWarning,0821.2,5.01,000.00,022.9,022.1,000.0,031.3,024.3,16.3,0004.0,0021.00,0012.47,0011.59
2024-01-21 23:56:00,SystemResetWarning,0821.2,5.01,000.00,022.9,022.1,000.0,031.3,024.3,16.3,0003.9,0021.12,0012.25,0011.41
2024-01-21 23:57:00,SystemResetWarning,0821.2,5.00,000.00,022.9,022.1,000.0,031.3,024.3,16.3,0003.9,0020.40,0012.08,0011.24
2024-01-21 23:58:00,SystemResetWarning,0821.2,4.99,000.00,023.0,022.1,000.0,031.3,024.3,16.3,0003.8,0020.12,0011.98,0011.10
2024-01-21 23:59:00,SystemResetWarning,0821.2,5.00,000.00,023.0,022.1,000.0,031.3,024.3,16.3,0003.8,0020.13,0011.81,0010.93
